Location: Haliburton Scout Reserve
(45.0900°N, 78.3200°W)
Time: 12:24:26
(UTC-04:00)

Cosmos 1315 - Visible Passes

Search period start: 02 August 2015 00:00
Search period end: 12 August 2015 00:00
Orbit: 277 x 285 km, 81.1° (Epoch: 02 August)

Date Brightness Start Highest point End Pass type
(mag) Time Alt. Az. Time Alt. Az. Time Alt. Az.
02 Aug 3.4 04:20:46 20° SSE 04:22:01 35° E 04:24:18 10° NNE visible
03 Aug 2.3 04:24:04 34° SSE 04:24:54 63° E 04:27:19 10° NNE visible
04 Aug 1.8 04:26:55 51° SW 04:27:22 73° W 04:29:47 10° N visible
05 Aug 2.4 04:29:19 41° W 04:29:27 41° WNW 04:31:45 10° N visible
06 Aug 3.3 04:31:15 26° WNW 04:31:15 26° WNW 04:33:12 10° NNW visible
07 Aug 4.0 04:32:44 17° WNW 04:32:44 17° WNW 04:34:05 10° NNW visible
08 Aug 4.5 04:33:46 12° NW 04:33:46 12° NW 04:34:21 10° NW visible
09 Aug 5.7 03:04:20 11° NE 03:04:20 11° NE 03:04:26 10° NE visible
10 Aug 5.8 03:04:30 11° NE 03:04:30 11° NE 03:04:35 10° NE visible
